Vorticity
5 5 5 5 7 10 10 9 10 11 11 9 7 7 7 7 6 5 6 7 7 6 5 5 4 4 4 5 5 5 5 5 6 6 6 6 6 6 7 5 4 3 9
6 5 5 5 6 10 12 9 10 11 11 9 7 7 6 6 6 5 7 6 7 6 5 5 4 5 5 6 6 6 6 7 6 6 6 6 6 7 6 4 4 3 9
7 7 6 6 6 9 14 9 9 11 10 9 8 7 7 7 6 5 6 7 5 5 5 5 5 5 5 6 6 6 7 6 6 6 6 6 6 7 6 5 4 3 8
6 7 7 6 6 8 14 8 6 7 9 9 8 8 8 6 5 5 5 5 5 5 5 5 5 4 4 6 6 7 6 5 6 6 6 6 6 6 6 5 4 3 5
3 5 7 7 7 6 11 12 7 6 6 7 7 7 6 5 5 4 5 5 5 6 5 5 4 4 4 5 6 6 5 5 6 7 6 5 5 6 6 5 4 3 2
4 5 6 7 8 7 7 12 12 8 6 6 7 6 6 5 4 4 4 4 5 5 4 4 5 5 4 6 6 6 5 5 6 6 5 5 4 5 6 5 5 3 2
4 4 5 5 6 7 7 7 9 12 10 7 6 6 6 6 5 5 5 4 5 4 5 5 5 5 5 5 5 5 5 5 5 5 5 5 5 6 6 5 4 4 3
4 4 4 4 5 5 5 6 7 7 7 10 12 11 9 7 6 5 5 5 5 6 6 5 6 5 5 6 6 5 5 5 5 6 5 5 5 5 5 5 5 5 4
5 4 3 3 4 5 5 4 3 4 5 6 6 7 8 9 10 10 11 11 10 10 10 9 8 7 7 7 6 6 6 5 5 5 6 6 6 5 5 6 6 5 5
4 4 4 3 4 4 4 5 4 3 3 4 5 5 6 6 6 7 7 7 6 6 6 6 5 5 6 6 7 7 7 7 6 6 7 7 7 6 6 6 5 5 5
2 3 3 3 2 3 3 3 4 4 4 4 5 6 7 6 7 6 5 4 4 5 5 5 6 6 6 6 6 6 7 7 7 7 7 8 7 7 7 6 6 5 5
4 5 3 3 3 2 2 3 3 3 5 5 5 5 8 8 7 7 6 7 7 7 7 7 8 7 8 8 9 8 7 7 6 6 6 6 7 7 7 7 7 6 6
8 9 4 0 2 4 3 4 5 4 5 6 7 6 7 7 8 7 7 7 6 6 5 4 4 6 6 7 6 6 7 7 8 8 8 7 5 5 6 6 7 7 7
7 7 6 2 6 8 7 8 8 6 7 9 8 3 3 5 5 6 5 4 4 2 2 2 3 3 3 3 3 3 3 3 4 5 6 7 8 9 7 5 5 5 5
4 4 3 9 9 8 11 10 7 6 9 13 9 5 4 1 1 2 1 2 2 1 1 2 2 2 2 3 3 2 4 4 4 4 4 4 6 5 6 8 9 8 6
9 8 11 8 3 5 5 4 4 7 8 8 10 9 7 6 5 5 3 3 3 2 1 3 2 2 2 3 5 6 7 7 7 6 6 9 9 11 12 6 5 7 8
5 6 6 5 8 7 5 4 3 6 6 3 6 7 8 8 8 7 8 7 6 6 7 6 6 6 7 7 7 7 5 7 10 10 8 6 7 9 8 9 10 5 5
7 9 8 7 8 9 8 7 8 9 5 3 5 7 7 8 8 8 8 8 8 9 10 11 12 14 15 13 9 8 7 7 8 8 9 8 6 6 7 7 6 4 5
6 5 5 9 22 21 20 15 12 8 6 7 9 8 7 7 7 7 6 7 7 8 8 8 7 7 8 8 8 7 7 7 7 7 7 7 8 10 12 11 10 8 6
7 10 19 18 12 12 11 11 12 12 11 10 8 7 6 6 5 5 6 7 7 7 8 8 6 5 5 6 6 5 6 6 6 7 7 8 8 8 9 8 8 10 12
16 19 12 10 9 12 12 9 9 5 5 5 5 6 7 8 9 8 9 9 8 6 6 6 5 5 3 3 5 5 4 6 7 8 7 6 5 7 5 6 8 8 11
15 10 9 7 7 6 5 5 5 4 6 8 10 11 11 11 10 9 7 7 6 4 2 2 3 4 5 5 6 6 9 6 5 7 7 7 8 7 8 8 8 9 4
9 7 5 4 5 5 6 7 8 9 10 10 9 8 7 7 6 6 5 4 4 4 4 4 4 5 6 8 9 8 12 7 8 8 8 8 9 9 9 9 10 9 10
6 4 4 5 5 7 6 6 9 11 10 9 8 8 7 7 5 4 4 4 4 4 4 6 8 8 9 10 11 10 9 6 9 13 8 14 13 15 13 13 13 13 12
3 3 4 5 5 3 6 10 11 10 9 8 6 6 6 5 5 5 5 5 7 9 10 12 15 15 14 13 13 13 14 14 13 10 9 8 6 9 9 11 14 16 18
2 3 3 2 2 4 7 11 10 8 6 6 7 6 5 6 7 8 7 8 6 18 16 11 10 10 10 10 10 9 8 7 8 9 13 8 9 5 8 8 9 12 11
Height
3158 3155 3153 3150 3147 3144 3142 3140 3138 3136 3135 3135 3135 3135 3135 3136 3137 3138 3138 3138 3138 3137 3137 3137 3137 3136 3135 3135 3134 3133 3132 3131 3129 3128 3127 3125 3125 3124 3123 3122 3122 3121 3120
3157 3155 3152 3149 3147 3144 3141 3139 3137 3136 3135 3135 3134 3135 3135 3135 3135 3136 3137 3137 3137 3136 3137 3136 3135 3134 3135 3133 3133 3131 3130 3128 3127 3126 3125 3124 3123 3122 3120 3120 3120 3120 3118
3157 3154 3151 3149 3146 3144 3141 3140 3138 3136 3135 3135 3135 3135 3134 3134 3134 3135 3137 3136 3136 3136 3136 3135 3134 3132 3132 3131 3130 3129 3127 3126 3124 3123 3122 3122 3121 3120 3119 3118 3118 3118 3116
3156 3154 3151 3149 3146 3144 3141 3140 3138 3137 3135 3135 3134 3134 3134 3133 3134 3134 3135 3135 3134 3135 3134 3134 3132 3131 3129 3129 3127 3126 3124 3122 3121 3120 3119 3119 3118 3118 3117 3117 3116 3115 3113
3156 3154 3152 3149 3147 3144 3142 3140 3139 3138 3136 3135 3134 3134 3134 3132 3132 3132 3132 3134 3134 3133 3132 3132 3130 3128 3126 3125 3124 3123 3122 3119 3118 3117 3116 3115 3114 3114 3113 3113 3112 3111 3110
3155 3153 3151 3149 3147 3145 3143 3141 3139 3137 3136 3135 3135 3134 3133 3132 3130 3130 3130 3130 3131 3130 3129 3128 3127 3124 3123 3122 3121 3120 3119 3117 3116 3114 3112 3111 3110 3110 3110 3110 3109 3108 3107
3155 3153 3151 3149 3147 3145 3143 3141 3139 3137 3136 3135 3134 3133 3132 3131 3129 3128 3128 3127 3127 3127 3126 3125 3124 3122 3120 3119 3117 3116 3115 3114 3112 3111 3109 3109 3108 3106 3106 3106 3105 3105 3104
3154 3152 3150 3148 3146 3145 3144 3142 3140 3138 3136 3134 3133 3131 3131 3129 3128 3127 3126 3125 3124 3123 3123 3122 3121 3119 3117 3115 3114 3113 3112 3111 3109 3107 3106 3104 3104 3103 3102 3102 3101 3100 3100
3153 3151 3149 3147 3146 3144 3143 3141 3140 3138 3136 3134 3132 3130 3129 3127 3126 3125 3124 3123 3122 3120 3120 3119 3118 3116 3114 3112 3110 3109 3108 3107 3106 3103 3102 3100 3100 3099 3099 3098 3098 3098 3097
3151 3149 3148 3146 3145 3143 3142 3141 3139 3138 3136 3133 3131 3129 3127 3126 3124 3124 3122 3120 3119 3118 3117 3116 3114 3112 3110 3108 3107 3105 3104 3103 3101 3100 3099 3098 3097 3095 3095 3095 3094 3093 3092
3148 3148 3147 3144 3143 3141 3141 3139 3137 3136 3134 3132 3130 3128 3126 3124 3122 3121 3119 3117 3116 3115 3113 3112 3110 3108 3107 3105 3103 3102 3100 3099 3097 3096 3095 3094 3092 3091 3091 3090 3089 3088 3087
3146 3146 3145 3143 3142 3140 3139 3137 3135 3134 3132 3130 3128 3126 3125 3123 3120 3118 3116 3115 3113 3112 3110 3109 3108 3106 3104 3102 3101 3099 3097 3095 3094 3092 3091 3089 3088 3086 3085 3084 3084 3083 3082
3144 3143 3142 3141 3140 3138 3136 3135 3133 3131 3130 3128 3127 3124 3122 3120 3119 3116 3114 3113 3110 3109 3107 3106 3105 3103 3101 3100 3098 3096 3094 3092 3090 3088 3087 3085 3083 3082 3081 3079 3078 3077 3076
3141 3140 3140 3139 3138 3136 3134 3132 3131 3129 3128 3126 3124 3122 3120 3118 3116 3114 3112 3110 3108 3107 3105 3103 3102 3100 3098 3097 3095 3093 3090 3088 3085 3083 3082 3080 3078 3076 3075 3073 3072 3070 3069
3138 3137 3136 3136 3135 3133 3132 3129 3128 3126 3124 3122 3121 3119 3117 3116 3114 3112 3110 3108 3106 3103 3101 3100 3099 3097 3095 3093 3091 3089 3086 3084 3082 3079 3077 3075 3073 3071 3068 3066 3065 3063 3062
3134 3133 3132 3132 3131 3130 3129 3127 3125 3123 3121 3119 3118 3116 3115 3114 3112 3110 3107 3105 3102 3100 3098 3097 3095 3093 3090 3088 3086 3083 3080 3077 3075 3072 3069 3067 3065 3064 3062 3059 3057 3055 3053
3129 3129 3128 3128 3127 3127 3125 3123 3121 3120 3118 3116 3115 3113 3112 3110 3108 3106 3104 3102 3100 3097 3095 3092 3089 3086 3083 3080 3078 3076 3072 3070 3067 3064 3061 3058 3055 3053 3053 3050 3047 3045 3043
3124 3124 3124 3123 3123 3122 3120 3119 3118 3116 3115 3113 3112 3110 3108 3107 3105 3103 3100 3098 3095 3093 3089 3086 3083 3080 3077 3073 3069 3067 3064 3061 3059 3056 3053 3050 3047 3043 3041 3040 3037 3034 3031
3120 3120 3119 3118 3117 3116 3115 3115 3114 3113 3112 3111 3109 3107 3105 3103 3101 3099 3096 3093 3090 3087 3083 3080 3077 3073 3070 3065 3061 3059 3056 3053 3050 3047 3044 3041 3037 3035 3032 3028 3026 3024 3021
3116 3115 3115 3114 3114 3113 3113 3112 3112 3110 3108 3107 3105 3103 3101 3099 3096 3094 3091 3088 3085 3081 3077 3073 3069 3065 3061 3055 3051 3048 3046 3043 3040 3037 3033 3030 3027 3024 3020 3016 3014 3010 3009
3112 3112 3111 3111 3111 3112 3111 3110 3109 3107 3106 3104 3102 3099 3097 3094 3091 3089 3085 3082 3079 3075 3071 3066 3062 3058 3054 3048 3041 3037 3035 3032 3029 3024 3021 3018 3015 3012 3008 3004 3001 2997 2994
3109 3109 3109 3109 3109 3110 3109 3108 3106 3104 3102 3100 3098 3095 3092 3089 3086 3083 3080 3076 3073 3068 3064 3059 3054 3050 3046 3042 3033 3026 3020 3020 3019 3013 3009 3006 3002 2999 2996 2991 2988 2984 2980
3107 3107 3107 3108 3108 3108 3107 3105 3103 3100 3098 3095 3093 3090 3087 3084 3081 3078 3074 3070 3066 3061 3056 3051 3046 3040 3034 3032 3027 3019 3007 3001 2995 2997 2994 2990 2986 2983 2980 2976 2974 2970 2966
3104 3105 3105 3105 3105 3105 3104 3102 3100 3097 3094 3091 3089 3086 3083 3080 3076 3072 3067 3063 3058 3053 3048 3043 3037 3031 3025 3018 3015 3013 3007 2995 2984 2972 2976 2974 2972 2968 2965 2961 2957 2954 2951
3102 3102 3103 3103 3103 3102 3100 3098 3096 3094 3092 3089 3085 3081 3077 3073 3069 3065 3061 3056 3051 3045 3039 3034 3028 3022 3016 3009 3003 2998 2993 2989 2984 2974 2957 2957 2956 2952 2948 2942 2940 2938 2937
3100 3100 3100 3100 3099 3098 3096 3094 3092 3090 3087 3083 3080 3076 3072 3068 3063 3058 3053 3047 3042 3035 3029 3024 3018 3013 3007 3002 2995 2989 2982 2975 2968 2961 2952 2946 2939 2938 2934 2932 2926 2921 2916